| time (UTC) | temp C | wind direction | speed KPH | gust KPH | rain 1hr cm | rain 24hr cm | rain mn cm | humidity % | barometer mb |
| 20260509135128 | 22 | 16 | 0.0 | 1.6 | 0.00 | 0.00 | 0.00 | 85 | 1031.6 |
| 20260509134624 | 22 | 8 | 0.0 | 1.6 | 0.00 | 0.00 | 0.00 | 86 | 1031.4 |
| 20260509134122 | 22 | 353 | 0.0 | 0.0 | 0.00 | 0.00 | 0.00 | 87 | 1031.3 |
| 20260509133619 | 21 | 224 | 0.0 | 1.6 | 0.00 | 0.00 | 0.00 | 87 | 1031.6 |
| 20260509133116 | 21 | 201 | 0.0 | 0.0 | 0.00 | 0.00 | 0.00 | 88 | 1031.4 |
| 20260509132614 | 21 | 168 | 0.0 | 1.6 | 0.00 | 0.00 | 0.00 | 88 | 1031.3 |
| 20260509132113 | 21 | 159 | 1.6 | 1.6 | 0.00 | 0.00 | 0.00 | 89 | 1031.2 |
| 20260509131608 | 20 | 207 | 1.6 | 3.2 | 0.00 | 0.00 | 0.00 | 89 | 1031.2 |
| 20260509131105 | 20 | 183 | 0.0 | 3.2 | 0.00 | 0.00 | 0.00 | 90 | 1031.3 |
| 20260509130601 | 20 | 16 | 0.0 | 1.6 | 0.00 | 0.00 | 0.00 | 90 | 1031.2 |
| 20260509130058 | 20 | 330 | 0.0 | 0.0 | 0.00 | 0.00 | 0.00 | 91 | 1031.5 |
| 20260509125554 | 20 | 176 | 0.0 | 3.2 | 0.00 | 0.00 | 0.00 | 91 | 1031.1 |
| 20260509125051 | 20 | 357 | 0.0 | 0.0 | 0.00 | 0.00 | 0.00 | 92 | 1031.3 |
| 20260509124547 | 20 | 16 | 0.0 | 1.6 | 0.00 | 0.00 | 0.00 | 93 | 1031.3 |
| 20260509124045 | 20 | 346 | 0.0 | 0.0 | 0.00 | 0.00 | 0.00 | 93 | 1031.4 |
| 20260509123543 | 20 | 318 | 0.0 | 0.0 | 0.00 | 0.00 | 0.00 | 93 | 1031.2 |
| 20260509123039 | 19 | 347 | 0.0 | 0.0 | 0.00 | 0.00 | 0.00 | 93 | 1031.5 |
| 20260509122535 | 19 | 151 | 0.0 | 0.0 | 0.00 | 0.00 | 0.00 | 94 | 1031.4 |
| 20260509122032 | 19 | 188 | 0.0 | 0.0 | 0.00 | 0.00 | 0.00 | 94 | 1031.3 |
| 20260509121529 | 19 | 206 | 0.0 | 0.0 | 0.00 | 0.00 | 0.00 | 94 | 1031.3 |
| 20260509121026 | 19 | 189 | 0.0 | 0.0 | 0.00 | 0.00 | 0.00 | 95 | 1031.2 |
| 20260509120525 | 19 | 342 | 0.0 | 0.0 | 0.00 | 0.00 | 0.00 | 95 | 1031.2 |
| 20260509120023 | 19 | 4 | 0.0 | 0.0 | 0.00 | 0.00 | 0.00 | 95 | 1030.8 |
| 20260509115519 | 19 | 2 | 0.0 | 1.6 | 0.00 | 0.00 | 0.00 | 95 | 1031.0 |
| 20260509115017 | 19 | 342 | 0.0 | 0.0 | 0.00 | 0.00 | 0.00 | 95 | 1031.1 |
| 20260509114515 | 18 | 2 | 0.0 | 0.0 | 0.00 | 0.00 | 0.00 | 95 | 1030.8 |
| 20260509114014 | 18 | 172 | 0.0 | 0.0 | 0.00 | 0.00 | 0.00 | 95 | 1030.7 |
| 20260509113512 | 18 | 172 | 0.0 | 0.0 | 0.00 | 0.00 | 0.00 | 95 | 1030.6 |
| 20260509113009 | 18 | 171 | 0.0 | 0.0 | 0.00 | 0.00 | 0.00 | 95 | 1030.6 |
| 20260509112505 | 18 | 146 | 0.0 | 0.0 | 0.00 | 0.00 | 0.00 | 95 | 1030.4 |
| 20260509112002 | 18 | 107 | 0.0 | 0.0 | 0.00 | 0.00 | 0.00 | 95 | 1030.5 |
| 20260509111459 | 18 | 93 | 0.0 | 0.0 | 0.00 | 0.00 | 0.00 | 95 | 1030.4 |
| 20260509110956 | 18 | 90 | 0.0 | 0.0 | 0.00 | 0.00 | 0.00 | 95 | 1030.2 |
| 20260509110453 | 18 | 90 | 0.0 | 0.0 | 0.00 | 0.00 | 0.00 | 95 | 1030.3 |
| 20260509105950 | 18 | 143 | 0.0 | 0.0 | 0.00 | 0.00 | 0.00 | 95 | 1030.2 |
| 20260509105449 | 18 | 144 | 0.0 | 0.0 | 0.00 | 0.00 | 0.00 | 95 | 1030.0 |
| 20260509104945 | 18 | 168 | 0.0 | 0.0 | 0.00 | 0.00 | 0.00 | 95 | 1029.9 |
| 20260509104442 | 18 | 171 | 0.0 | 0.0 | 0.00 | 0.00 | 0.00 | 94 | 1029.8 |
| 20260509103940 | 18 | 121 | 0.0 | 0.0 | 0.00 | 0.00 | 0.00 | 94 | 1029.9 |
| 20260509103437 | 19 | 121 | 0.0 | 0.0 | 0.00 | 0.00 | 0.00 | 94 | 1029.9 |
| 20260509102935 | 19 | 175 | 0.0 | 0.0 | 0.00 | 0.00 | 0.00 | 94 | 1029.7 |
| 20260509102432 | 19 | 178 | 0.0 | 0.0 | 0.00 | 0.00 | 0.00 | 94 | 1029.9 |
| 20260509101928 | 19 | 121 | 0.0 | 0.0 | 0.00 | 0.00 | 0.00 | 94 | 1029.6 |
| 20260509101425 | 19 | 101 | 0.0 | 0.0 | 0.00 | 0.00 | 0.00 | 94 | 1029.8 |
| 20260509100922 | 19 | 68 | 0.0 | 0.0 | 0.00 | 0.00 | 0.00 | 94 | 1029.6 |
| 20260509100419 | 19 | 156 | 0.0 | 0.0 | 0.00 | 0.00 | 0.00 | 94 | 1029.7 |
| 20260509095916 | 19 | 349 | 0.0 | 0.0 | 0.00 | 0.00 | 0.00 | 94 | 1029.7 |
| 20260509095413 | 19 | 335 | 0.0 | 0.0 | 0.00 | 0.00 | 0.00 | 94 | 1029.7 |
| 20260509094910 | 19 | 272 | 0.0 | 0.0 | 0.00 | 0.00 | 0.00 | 94 | 1029.8 |
| 20260509094406 | 19 | 21 | 0.0 | 1.6 | 0.00 | 0.00 | 0.00 | 94 | 1029.8 |
| 20260509093904 | 19 | 354 | 0.0 | 0.0 | 0.00 | 0.00 | 0.00 | 94 | 1030.1 |
| 20260509093401 | 19 | 349 | 0.0 | 0.0 | 0.00 | 0.00 | 0.00 | 94 | 1029.7 |
| 20260509092900 | 19 | 330 | 0.0 | 0.0 | 0.00 | 0.00 | 0.00 | 94 | 1029.8 |
| 20260509092357 | 19 | 3 | 0.0 | 0.0 | 0.00 | 0.00 | 0.00 | 94 | 1030.0 |
| 20260509091855 | 19 | 3 | 0.0 | 0.0 | 0.00 | 0.00 | 0.00 | 94 | 1029.9 |
| 20260509091352 | 19 | 3 | 0.0 | 0.0 | 0.00 | 0.00 | 0.00 | 94 | 1029.7 |
| 20260509090849 | 19 | 25 | 0.0 | 0.0 | 0.00 | 0.00 | 0.00 | 93 | 1029.8 |
| 20260509090347 | 19 | 5 | 0.0 | 0.0 | 0.00 | 0.00 | 0.00 | 93 | 1029.8 |
| 20260509085844 | 19 | 8 | 0.0 | 0.0 | 0.00 | 0.00 | 0.00 | 93 | 1029.7 |
| 20260509085341 | 19 | 14 | 0.0 | 0.0 | 0.00 | 0.00 | 0.00 | 93 | 1029.8 |
| 20260509084837 | 20 | 10 | 0.0 | 0.0 | 0.00 | 0.00 | 0.00 | 93 | 1030.0 |
| 20260509084334 | 20 | 0 | 0.0 | 0.0 | 0.00 | 0.00 | 0.00 | 93 | 1029.8 |
| 20260509083832 | 20 | 24 | 0.0 | 0.0 | 0.00 | 0.00 | 0.00 | 93 | 1030.0 |
| 20260509083328 | 20 | 1 | 0.0 | 0.0 | 0.00 | 0.00 | 0.00 | 92 | 1030.3 |
| 20260509082825 | 20 | 2 | 0.0 | 0.0 | 0.00 | 0.00 | 0.00 | 92 | 1030.2 |
| 20260509082321 | 20 | 14 | 0.0 | 0.0 | 0.00 | 0.00 | 0.00 | 91 | 1030.3 |
| 20260509081819 | 20 | 14 | 0.0 | 0.0 | 0.00 | 0.00 | 0.00 | 91 | 1030.2 |
| 20260509081316 | 20 | 4 | 0.0 | 0.0 | 0.00 | 0.00 | 0.00 | 91 | 1030.2 |
| 20260509080814 | 20 | 3 | 0.0 | 0.0 | 0.00 | 0.00 | 0.00 | 90 | 1030.3 |
| 20260509080312 | 20 | 1 | 0.0 | 0.0 | 0.00 | 0.00 | 0.00 | 90 | 1030.4 |
| 20260509075810 | 20 | 358 | 0.0 | 0.0 | 0.00 | 0.00 | 0.00 | 89 | 1030.6 |
| 20260509075307 | 20 | 9 | 0.0 | 0.0 | 0.00 | 0.00 | 0.00 | 88 | 1030.5 |
| 20260509074804 | 20 | 3 | 0.0 | 1.6 | 0.00 | 0.00 | 0.00 | 88 | 1030.7 |
| 20260509074301 | 20 | 195 | 0.0 | 0.0 | 0.00 | 0.00 | 0.00 | 88 | 1030.5 |
| 20260509073757 | 20 | 186 | 0.0 | 0.0 | 0.00 | 0.00 | 0.00 | 88 | 1030.5 |
| 20260509073254 | 20 | 171 | 0.0 | 3.2 | 0.00 | 0.00 | 0.00 | 88 | 1030.7 |
| 20260509072750 | 20 | 324 | 1.6 | 1.6 | 0.00 | 0.00 | 0.00 | 87 | 1030.6 |
| 20260509072247 | 20 | 335 | 0.0 | 0.0 | 0.00 | 0.00 | 0.00 | 87 | 1030.6 |
| 20260509071744 | 20 | 253 | 0.0 | 0.0 | 0.00 | 0.00 | 0.00 | 87 | 1030.7 |
| 20260509071241 | 20 | 7 | 0.0 | 1.6 | 0.00 | 0.00 | 0.00 | 87 | 1030.7 |
| 20260509070738 | 20 | 23 | 0.0 | 4.8 | 0.00 | 0.00 | 0.00 | 87 | 1030.6 |
| 20260509070234 | 20 | 178 | 0.0 | 4.8 | 0.00 | 0.00 | 0.00 | 87 | 1030.7 |
| 20260509065731 | 20 | 344 | 0.0 | 0.0 | 0.00 | 0.00 | 0.00 | 87 | 1031.0 |
| 20260509065227 | 20 | 142 | 1.6 | 1.6 | 0.00 | 0.00 | 0.00 | 87 | 1030.9 |
| 20260509064724 | 20 | 112 | 0.0 | 1.6 | 0.00 | 0.00 | 0.00 | 87 | 1031.0 |
| 20260509064221 | 20 | 285 | 0.0 | 1.6 | 0.00 | 0.00 | 0.00 | 87 | 1030.7 |
| 20260509063719 | 20 | 183 | 1.6 | 1.6 | 0.00 | 0.00 | 0.00 | 88 | 1030.7 |
| 20260509063214 | 20 | 199 | 0.0 | 1.6 | 0.00 | 0.00 | 0.00 | 88 | 1030.8 |
| 20260509062712 | 20 | 322 | 0.0 | 0.0 | 0.00 | 0.00 | 0.00 | 89 | 1030.6 |
| 20260509062209 | 20 | 119 | 0.0 | 0.0 | 0.00 | 0.00 | 0.00 | 89 | 1031.1 |
| 20260509061706 | 20 | 356 | 0.0 | 0.0 | 0.00 | 0.00 | 0.00 | 88 | 1031.4 |
| 20260509061204 | 20 | 356 | 0.0 | 1.6 | 0.00 | 0.00 | 0.00 | 86 | 1031.4 |
| 20260509060701 | 20 | 344 | 0.0 | 0.0 | 0.00 | 0.00 | 0.00 | 85 | 1031.2 |
| 20260509060157 | 20 | 193 | 0.0 | 3.2 | 0.00 | 0.00 | 0.00 | 84 | 1031.2 |
| 20260509055653 | 20 | 193 | 1.6 | 1.6 | 0.00 | 0.00 | 0.00 | 84 | 1031.6 |
| 20260509055149 | 20 | 170 | 1.6 | 3.2 | 0.00 | 0.00 | 0.00 | 84 | 1031.6 |
| 20260509054645 | 20 | 259 | 0.0 | 1.6 | 0.00 | 0.00 | 0.00 | 84 | 1031.5 |
| 20260509054143 | 20 | 285 | 0.0 | 1.6 | 0.00 | 0.00 | 0.00 | 85 | 1031.4 |
| 20260509053641 | 20 | 171 | 0.0 | 0.0 | 0.00 | 0.00 | 0.00 | 85 | 1031.5 |
| 20260509053138 | 20 | 169 | 0.0 | 1.6 | 0.00 | 0.00 | 0.00 | 85 | 1031.6 |
| 20260509052636 | 20 | 340 | 0.0 | 1.6 | 0.00 | 0.00 | 0.00 | 85 | 1031.5 |
| 20260509052133 | 20 | 178 | 0.0 | 1.6 | 0.00 | 0.00 | 0.00 | 84 | 1031.3 |
| 20260509051631 | 20 | 165 | 0.0 | 0.0 | 0.00 | 0.00 | 0.00 | 84 | 1031.4 |
| 20260509051128 | 20 | 349 | 0.0 | 0.0 | 0.00 | 0.00 | 0.00 | 84 | 1031.7 |
| 20260509050625 | 20 | 276 | 0.0 | 0.0 | 0.00 | 0.00 | 0.00 | 84 | 1031.7 |
| 20260509050121 | 20 | 236 | 0.0 | 1.6 | 0.00 | 0.00 | 0.00 | 84 | 1031.4 |
| 20260509045619 | 20 | 251 | 0.0 | 3.2 | 0.00 | 0.00 | 0.00 | 84 | 1031.7 |
| 20260509045116 | 20 | 175 | 1.6 | 3.2 | 0.00 | 0.00 | 0.00 | 85 | 1031.8 |
| 20260509044613 | 19 | 131 | 3.2 | 3.2 | 0.00 | 0.00 | 0.00 | 86 | 1031.7 |
| 20260509044110 | 19 | 171 | 0.0 | 1.6 | 0.00 | 0.00 | 0.00 | 86 | 1031.8 |
| 20260509043606 | 19 | 187 | 0.0 | 1.6 | 0.00 | 0.00 | 0.00 | 88 | 1031.8 |
| 20260509043102 | 18 | 121 | 0.0 | 3.2 | 0.00 | 0.00 | 0.00 | 90 | 1032.0 |
| 20260509042559 | 18 | 221 | 0.0 | 1.6 | 0.00 | 0.00 | 0.00 | 91 | 1031.8 |
| 20260509042055 | 18 | 348 | 1.6 | 1.6 | 0.00 | 0.00 | 0.00 | 92 | 1031.8 |
| 20260509041552 | 18 | 37 | 0.0 | 1.6 | 0.00 | 0.00 | 0.00 | 92 | 1031.4 |
| 20260509041049 | 18 | 14 | 0.0 | 0.0 | 0.00 | 0.00 | 0.00 | 91 | 1030.7 |
| 20260509040548 | 18 | 11 | 0.0 | 0.0 | 0.00 | 0.00 | 0.00 | 90 | 1030.3 |
| 20260509040044 | 18 | 9 | 0.0 | 0.0 | 0.00 | 0.00 | 0.00 | 89 | 1030.2 |
| 20260509035541 | 18 | 10 | 0.0 | 0.0 | 0.00 | 0.00 | 0.00 | 88 | 1030.3 |
| 20260509035037 | 18 | 10 | 0.0 | 0.0 | 0.00 | 0.00 | 0.00 | 88 | 1030.1 |
| 20260509034536 | 18 | 10 | 0.0 | 0.0 | 0.00 | 0.00 | 0.00 | 88 | 1030.1 |
| 20260509034032 | 18 | 10 | 0.0 | 1.6 | 0.00 | 0.00 | 0.00 | 88 | 1030.2 |
| 20260509033529 | 18 | 350 | 1.6 | 1.6 | 0.00 | 0.00 | 0.00 | 89 | 1030.2 |
| 20260509033026 | 18 | 147 | 0.0 | 1.6 | 0.00 | 0.00 | 0.00 | 88 | 1029.9 |
| 20260509032524 | 18 | 74 | 0.0 | 0.0 | 0.00 | 0.00 | 0.00 | 88 | 1030.1 |
| 20260509032021 | 18 | 74 | 0.0 | 0.0 | 0.00 | 0.00 | 0.00 | 87 | 1029.9 |
| 20260509031518 | 18 | 74 | 0.0 | 0.0 | 0.00 | 0.00 | 0.00 | 86 | 1029.9 |
| 20260509031015 | 18 | 12 | 0.0 | 0.0 | 0.00 | 0.00 | 0.00 | 86 | 1029.9 |
| 20260509030513 | 19 | 12 | 0.0 | 0.0 | 0.00 | 0.00 | 0.00 | 85 | 1030.1 |
| 20260509030010 | 19 | 10 | 0.0 | 0.0 | 0.00 | 0.00 | 0.00 | 85 | 1030.3 |
| 20260509025506 | 20 | 9 | 0.0 | 0.0 | 0.00 | 0.00 | 0.00 | 83 | 1029.9 |
| 20260509025001 | 20 | 40 | 0.0 | 0.0 | 0.00 | 0.00 | 0.00 | 81 | 1030.0 |
| 20260509024458 | 20 | 39 | 0.0 | 0.0 | 0.00 | 0.00 | 0.00 | 80 | 1030.1 |
| 20260509023954 | 20 | 39 | 0.0 | 0.0 | 0.00 | 0.00 | 0.00 | 80 | 1030.4 |
| 20260509023452 | 21 | 14 | 0.0 | 1.6 | 0.00 | 0.00 | 0.00 | 79 | 1030.1 |
| 20260509022948 | 21 | 330 | 0.0 | 0.0 | 0.00 | 0.00 | 0.00 | 78 | 1030.2 |
| 20260509022445 | 21 | 178 | 0.0 | 1.6 | 0.00 | 0.00 | 0.00 | 79 | 1030.2 |
| 20260509021943 | 21 | 188 | 1.6 | 1.6 | 0.00 | 0.00 | 0.00 | 79 | 1029.9 |
| 20260509021439 | 21 | 34 | 0.0 | 0.0 | 0.00 | 0.00 | 0.00 | 79 | 1029.8 |
| 20260509020937 | 21 | 177 | 0.0 | 1.6 | 0.00 | 0.00 | 0.00 | 79 | 1029.6 |
| 20260509020435 | 21 | 171 | 0.0 | 0.0 | 0.00 | 0.00 | 0.00 | 78 | 1029.7 |
| 20260509015932 | 21 | 172 | 0.0 | 0.0 | 0.00 | 0.00 | 0.00 | 77 | 1029.8 |
| 20260509015431 | 21 | 179 | 0.0 | 0.0 | 0.00 | 0.00 | 0.00 | 77 | 1030.1 |
| 20260509014927 | 21 | 220 | 0.0 | 0.0 | 0.00 | 0.00 | 0.00 | 77 | 1030.0 |
| 20260509014424 | 21 | 333 | 0.0 | 0.0 | 0.00 | 0.00 | 0.00 | 76 | 1029.7 |
| 20260509013920 | 22 | 336 | 0.0 | 0.0 | 0.00 | 0.00 | 0.00 | 76 | 1029.8 |
| 20260509013417 | 22 | 335 | 0.0 | 0.0 | 0.00 | 0.00 | 0.00 | 73 | 1029.6 |
| 20260509012912 | 22 | 324 | 0.0 | 0.0 | 0.00 | 0.00 | 0.00 | 73 | 1029.7 |
| 20260509012409 | 22 | 218 | 0.0 | 0.0 | 0.00 | 0.00 | 0.00 | 72 | 1029.8 |
| 20260509011907 | 22 | 233 | 0.0 | 0.0 | 0.00 | 0.00 | 0.00 | 72 | 1029.9 |
| 20260509011404 | 22 | 340 | 0.0 | 0.0 | 0.00 | 0.00 | 0.00 | 71 | 1029.6 |
| 20260509010902 | 23 | 340 | 0.0 | 0.0 | 0.00 | 0.00 | 0.00 | 69 | 1029.7 |
| 20260509010359 | 23 | 295 | 0.0 | 0.0 | 0.00 | 0.00 | 0.00 | 69 | 1029.6 |
| 20260509005856 | 23 | 158 | 0.0 | 0.0 | 0.00 | 0.00 | 0.00 | 68 | 1029.5 |
| 20260509005355 | 23 | 160 | 0.0 | 0.0 | 0.00 | 0.00 | 0.00 | 68 | 1029.5 |
| 20260509004854 | 23 | 162 | 0.0 | 1.6 | 0.00 | 0.00 | 0.00 | 67 | 1029.2 |
| 20260509004351 | 23 | 215 | 0.0 | 3.2 | 0.00 | 0.00 | 0.00 | 67 | 1029.3 |
| 20260509003849 | 23 | 145 | 1.6 | 3.2 | 0.00 | 0.00 | 0.00 | 66 | 1029.2 |
| 20260509003346 | 23 | 178 | 3.2 | 4.8 | 0.00 | 0.00 | 0.00 | 66 | 1029.2 |
| 20260509002843 | 23 | 207 | 1.6 | 4.8 | 0.00 | 0.00 | 0.00 | 66 | 1029.1 |
| 20260509002341 | 23 | 199 | 3.2 | 3.2 | 0.00 | 0.00 | 0.00 | 65 | 1029.2 |
| 20260509001838 | 24 | 167 | 1.6 | 3.2 | 0.00 | 0.00 | 0.00 | 65 | 1028.9 |
| 20260509001334 | 24 | 164 | 0.0 | 0.0 | 0.00 | 0.00 | 0.00 | 65 | 1028.9 |
| 20260509000832 | 24 | 57 | 0.0 | 3.2 | 0.00 | 0.00 | 0.00 | 64 | 1028.9 |
| 20260509000329 | 25 | 10 | 3.2 | 4.8 | 0.00 | 0.00 | 0.00 | 64 | 1028.8 |
| 20260508235825 | 25 | 214 | 0.0 | 1.6 | 0.00 | 0.00 | 0.00 | 64 | 1028.8 |
| 20260508235323 | 25 | 136 | 1.6 | 1.6 | 0.00 | 0.00 | 0.00 | 63 | 1028.8 |
| 20260508234820 | 25 | 168 | 3.2 | 9.7 | 0.00 | 0.00 | 0.00 | 62 | 1028.7 |
| 20260508234316 | 25 | 192 | 1.6 | 6.4 | 0.00 | 0.00 | 0.00 | 63 | 1028.8 |
| 20260508233815 | 25 | 254 | 0.0 | 11.3 | 0.00 | 0.00 | 0.00 | 62 | 1028.9 |
| 20260508233313 | 26 | 249 | 1.6 | 6.4 | 0.00 | 0.00 | 0.00 | 61 | 1028.7 |
| 20260508232810 | 25 | 233 | 1.6 | 6.4 | 0.00 | 0.00 | 0.00 | 62 | 1028.9 |
| 20260508232307 | 26 | 297 | 1.6 | 6.4 | 0.00 | 0.00 | 0.00 | 60 | 1028.9 |
| 20260508231805 | 26 | 91 | 0.0 | 6.4 | 0.00 | 0.00 | 0.00 | 61 | 1029.0 |
| 20260508231300 | 26 | 195 | 1.6 | 4.8 | 0.00 | 0.00 | 0.00 | 62 | 1028.7 |
| 20260508230758 | 25 | 162 | 0.0 | 4.8 | 0.00 | 0.00 | 0.00 | 63 | 1029.1 |
| 20260508230254 | 26 | 193 | 1.6 | 3.2 | 0.00 | 0.00 | 0.00 | 60 | 1028.9 |
| 20260508225752 | 26 | 19 | 1.6 | 4.8 | 0.00 | 0.00 | 0.00 | 59 | 1029.0 |
| 20260508225248 | 27 | 150 | 1.6 | 1.6 | 0.00 | 0.00 | 0.00 | 59 | 1028.9 |
| 20260508224746 | 27 | 340 | 3.2 | 6.4 | 0.00 | 0.00 | 0.00 | 57 | 1029.0 |
| 20260508224243 | 27 | 155 | 4.8 | 11.3 | 0.00 | 0.00 | 0.00 | 57 | 1028.9 |
| 20260508223741 | 27 | 196 | 1.6 | 9.7 | 0.00 | 0.00 | 0.00 | 59 | 1029.1 |
| 20260508223238 | 27 | 142 | 1.6 | 4.8 | 0.00 | 0.00 | 0.00 | 60 | 1029.2 |
| 20260508222735 | 27 | 143 | 0.0 | 4.8 | 0.00 | 0.00 | 0.00 | 59 | 1029.2 |
| 20260508222233 | 28 | 335 | 3.2 | 4.8 | 0.00 | 0.00 | 0.00 | 59 | 1029.3 |
| 20260508221729 | 27 | 174 | 1.6 | 9.7 | 0.00 | 0.00 | 0.00 | 61 | 1029.4 |
| 20260508221225 | 27 | 125 | 3.2 | 3.2 | 0.00 | 0.00 | 0.00 | 61 | 1029.4 |
| 20260508220721 | 27 | 97 | 3.2 | 3.2 | 0.00 | 0.00 | 0.00 | 64 | 1029.5 |
| 20260508220218 | 27 | 110 | 3.2 | 6.4 | 0.00 | 0.00 | 0.00 | 61 | 1029.6 |
| 20260508215714 | 27 | 132 | 3.2 | 9.7 | 0.00 | 0.00 | 0.00 | 61 | 1029.5 |
| 20260508215211 | 27 | 192 | 3.2 | 4.8 | 0.00 | 0.00 | 0.00 | 62 | 1029.6 |
| 20260508214708 | 27 | 310 | 0.0 | 3.2 | 0.00 | 0.00 | 0.00 | 62 | 1029.6 |
| 20260508214205 | 26 | 288 | 0.0 | 1.6 | 0.00 | 0.00 | 0.00 | 63 | 1029.7 |
| 20260508213702 | 27 | 45 | 1.6 | 4.8 | 0.00 | 0.00 | 0.00 | 62 | 1029.8 |
| 20260508213158 | 27 | 190 | 1.6 | 3.2 | 0.00 | 0.00 | 0.00 | 63 | 1029.8 |
| 20260508212655 | 28 | 274 | 4.8 | 6.4 | 0.00 | 0.00 | 0.00 | 58 | 1030.1 |
| 20260508212151 | 27 | 268 | 0.0 | 3.2 | 0.00 | 0.00 | 0.00 | 62 | 1030.1 |
| 20260508211651 | 27 | 305 | 0.0 | 3.2 | 0.00 | 0.00 | 0.00 | 59 | 1030.0 |
| 20260508211148 | 27 | 148 | 3.2 | 4.8 | 0.00 | 0.00 | 0.00 | 61 | 1030.0 |
| 20260508210645 | 27 | 175 | 4.8 | 9.7 | 0.00 | 0.00 | 0.00 | 60 | 1030.1 |
| 20260508210142 | 26 | 208 | 3.2 | 9.7 | 0.00 | 0.00 | 0.00 | 60 | 1030.0 |
| 20260508205639 | 27 | 246 | 1.6 | 14.5 | 0.00 | 0.00 | 0.00 | 61 | 1030.3 |
| 20260508205136 | 26 | 338 | 1.6 | 4.8 | 0.00 | 0.00 | 0.00 | 63 | 1030.4 |
| 20260508204632 | 26 | 245 | 0.0 | 3.2 | 0.00 | 0.00 | 0.00 | 61 | 1030.2 |
| 20260508204128 | 26 | 11 | 6.4 | 6.4 | 0.00 | 0.00 | 0.00 | 61 | 1030.4 |
| 20260508203624 | 26 | 117 | 4.8 | 6.4 | 0.00 | 0.00 | 0.00 | 62 | 1030.5 |
| 20260508203120 | 26 | 228 | 3.2 | 9.7 | 0.00 | 0.00 | 0.00 | 62 | 1030.7 |
| 20260508202617 | 26 | 181 | 3.2 | 11.3 | 0.00 | 0.00 | 0.00 | 62 | 1030.6 |
| 20260508202114 | 26 | 126 | 0.0 | 6.4 | 0.00 | 0.00 | 0.00 | 60 | 1030.6 |
| 20260508201611 | 27 | 123 | 1.6 | 4.8 | 0.00 | 0.00 | 0.00 | 57 | 1030.6 |
| 20260508201107 | 27 | 228 | 0.0 | 6.4 | 0.00 | 0.00 | 0.00 | 61 | 1030.8 |
| 20260508200604 | 27 | 107 | 8.0 | 12.9 | 0.00 | 0.00 | 0.00 | 60 | 1030.7 |
| 20260508200100 | 27 | 167 | 1.6 | 4.8 | 0.00 | 0.00 | 0.00 | 59 | 1030.7 |
| 20260508195557 | 26 | 184 | 1.6 | 6.4 | 0.00 | 0.00 | 0.00 | 61 | 1030.9 |
| 20260508195053 | 26 | 213 | 3.2 | 4.8 | 0.00 | 0.00 | 0.00 | 60 | 1030.8 |
| 20260508194550 | 27 | 160 | 1.6 | 6.4 | 0.00 | 0.00 | 0.00 | 58 | 1031.0 |
| 20260508194048 | 26 | 163 | 3.2 | 4.8 | 0.00 | 0.00 | 0.00 | 58 | 1031.1 |
| 20260508193544 | 26 | 40 | 3.2 | 6.4 | 0.00 | 0.00 | 0.00 | 59 | 1030.9 |
| 20260508193041 | 25 | 191 | 6.4 | 6.4 | 0.00 | 0.00 | 0.00 | 62 | 1031.0 |
| 20260508192537 | 26 | 132 | 3.2 | 4.8 | 0.00 | 0.00 | 0.00 | 59 | 1031.2 |
| 20260508192035 | 25 | 164 | 3.2 | 12.9 | 0.00 | 0.00 | 0.00 | 62 | 1031.4 |
| 20260508191531 | 26 | 359 | 1.6 | 6.4 | 0.00 | 0.00 | 0.00 | 57 | 1031.5 |
| 20260508191028 | 26 | 229 | 1.6 | 9.7 | 0.00 | 0.00 | 0.00 | 59 | 1031.3 |
| 20260508190525 | 26 | 261 | 0.0 | 4.8 | 0.00 | 0.00 | 0.00 | 60 | 1031.5 |
| 20260508190021 | 26 | 215 | 1.6 | 9.7 | 0.00 | 0.00 | 0.00 | 58 | 1031.5 |
| 20260508185519 | 26 | 187 | 1.6 | 4.8 | 0.00 | 0.00 | 0.00 | 55 | 1031.7 |
| 20260508185016 | 25 | 299 | 3.2 | 6.4 | 0.00 | 0.00 | 0.00 | 58 | 1031.8 |
| 20260508184514 | 25 | 179 | 4.8 | 11.3 | 0.00 | 0.00 | 0.00 | 57 | 1031.8 |
| 20260508184010 | 26 | 310 | 0.0 | 4.8 | 0.00 | 0.00 | 0.00 | 56 | 1031.8 |
| 20260508183507 | 25 | 357 | 0.0 | 1.6 | 0.00 | 0.00 | 0.00 | 57 | 1032.1 |
| 20260508183002 | 25 | 202 | 3.2 | 9.7 | 0.00 | 0.00 | 0.00 | 60 | 1032.4 |
| 20260508182459 | 24 | 70 | 3.2 | 4.8 | 0.00 | 0.00 | 0.00 | 58 | 1032.8 |
| 20260508181955 | 23 | 183 | 3.2 | 9.7 | 0.00 | 0.00 | 0.00 | 60 | 1032.9 |
| 20260508181451 | 24 | 186 | 9.7 | 12.9 | 0.00 | 0.00 | 0.00 | 58 | 1033.0 |
| 20260508180949 | 25 | 45 | 1.6 | 6.4 | 0.00 | 0.00 | 0.00 | 62 | 1033.1 |
| 20260508180446 | 25 | 189 | 0.0 | 1.6 | 0.00 | 0.00 | 0.00 | 59 | 1033.0 |
| 20260508175942 | 25 | 113 | 3.2 | 4.8 | 0.00 | 0.00 | 0.00 | 62 | 1033.3 |
| 20260508175438 | 24 | 227 | 3.2 | 4.8 | 0.00 | 0.00 | 0.00 | 60 | 1033.5 |
| 20260508174936 | 24 | 179 | 3.2 | 6.4 | 0.00 | 0.00 | 0.00 | 58 | 1033.1 |
| 20260508174434 | 25 | 220 | 3.2 | 11.3 | 0.00 | 0.00 | 0.00 | 60 | 1033.3 |
| 20260508173930 | 25 | 195 | 1.6 | 11.3 | 0.00 | 0.00 | 0.00 | 58 | 1033.6 |
| 20260508173427 | 25 | 335 | 0.0 | 4.8 | 0.00 | 0.00 | 0.00 | 60 | 1033.7 |
| 20260508172923 | 25 | 179 | 8.0 | 11.3 | 0.00 | 0.00 | 0.00 | 57 | 1033.5 |
| 20260508172421 | 24 | 294 | 4.8 | 6.4 | 0.00 | 0.00 | 0.00 | 58 | 1033.7 |
| 20260508171917 | 24 | 284 | 1.6 | 6.4 | 0.00 | 0.00 | 0.00 | 59 | 1033.8 |
| 20260508171413 | 24 | 30 | 1.6 | 3.2 | 0.00 | 0.00 | 0.00 | 60 | 1033.9 |
| 20260508170910 | 23 | 184 | 3.2 | 4.8 | 0.00 | 0.00 | 0.00 | 62 | 1034.1 |
| 20260508170408 | 24 | 76 | 1.6 | 4.8 | 0.00 | 0.00 | 0.00 | 59 | 1034.2 |
| 20260508165904 | 23 | 195 | 1.6 | 11.3 | 0.00 | 0.00 | 0.00 | 63 | 1034.4 |
| 20260508165402 | 23 | 184 | 3.2 | 9.7 | 0.00 | 0.00 | 0.00 | 62 | 1034.1 |
| 20260508164857 | 23 | 199 | 3.2 | 3.2 | 0.00 | 0.00 | 0.00 | 63 | 1034.1 |
| 20260508164355 | 24 | 156 | 0.0 | 3.2 | 0.00 | 0.00 | 0.00 | 63 | 1034.6 |
| 20260508163852 | 23 | 167 | 1.6 | 6.4 | 0.00 | 0.00 | 0.00 | 62 | 1034.6 |
| 20260508163351 | 23 | 353 | 3.2 | 6.4 | 0.00 | 0.00 | 0.00 | 60 | 1034.7 |
| 20260508162851 | 22 | 200 | 0.0 | 3.2 | 0.00 | 0.00 | 0.00 | 65 | 1034.7 |
| 20260508162349 | 23 | 204 | 4.8 | 6.4 | 0.00 | 0.00 | 0.00 | 63 | 1034.8 |
| 20260508161845 | 22 | 21 | 1.6 | 3.2 | 0.00 | 0.00 | 0.00 | 67 | 1034.5 |
| 20260508161343 | 22 | 103 | 1.6 | 3.2 | 0.00 | 0.00 | 0.00 | 66 | 1034.9 |
| 20260508160840 | 21 | 209 | 3.2 | 4.8 | 0.00 | 0.00 | 0.00 | 67 | 1034.7 |
| 20260508160338 | 21 | 280 | 1.6 | 4.8 | 0.00 | 0.00 | 0.00 | 68 | 1035.0 |
| 20260508155834 | 21 | 184 | 1.6 | 3.2 | 0.00 | 0.00 | 0.00 | 68 | 1034.9 |
| 20260508155332 | 22 | 171 | 0.0 | 1.6 | 0.00 | 0.00 | 0.00 | 66 | 1034.6 |
| 20260508154828 | 21 | 6 | 1.6 | 4.8 | 0.00 | 0.00 | 0.00 | 65 | 1035.0 |
| 20260508154326 | 22 | 155 | 3.2 | 4.8 | 0.00 | 0.00 | 0.00 | 66 | 1035.0 |
| 20260508153822 | 22 | 139 | 0.0 | 4.8 | 0.00 | 0.00 | 0.00 | 64 | 1035.0 |
| 20260508153320 | 22 | 134 | 1.6 | 4.8 | 0.00 | 0.00 | 0.00 | 65 | 1034.7 |
| 20260508152815 | 21 | 50 | 0.0 | 4.8 | 0.00 | 0.00 | 0.00 | 69 | 1034.8 |
| 20260508152312 | 21 | 15 | 1.6 | 6.4 | 0.00 | 0.00 | 0.00 | 70 | 1034.8 |
| 20260508151808 | 20 | 21 | 0.0 | 4.8 | 0.00 | 0.00 | 0.00 | 73 | 1034.8 |
| 20260508151305 | 20 | 150 | 6.4 | 6.4 | 0.00 | 0.00 | 0.00 | 75 | 1034.9 |
| 20260508150802 | 20 | 207 | 6.4 | 6.4 | 0.00 | 0.00 | 0.00 | 73 | 1035.0 |
| 20260508150258 | 19 | 27 | 1.6 | 3.2 | 0.00 | 0.00 | 0.00 | 76 | 1035.0 |
| 20260508145755 | 19 | 174 | 1.6 | 4.8 | 0.00 | 0.00 | 0.00 | 77 | 1035.1 |
| 20260508145251 | 18 | 182 | 0.0 | 4.8 | 0.00 | 0.00 | 0.00 | 78 | 1035.3 |
| 20260508144748 | 18 | 200 | 0.0 | 1.6 | 0.00 | 0.00 | 0.00 | 77 | 1035.4 |
| 20260508144246 | 18 | 188 | 1.6 | 6.4 | 0.00 | 0.00 | 0.00 | 79 | 1035.4 |
| 20260508143743 | 18 | 151 | 3.2 | 6.4 | 0.00 | 0.00 | 0.00 | 78 | 1034.9 |
| 20260508143240 | 18 | 118 | 1.6 | 6.4 | 0.00 | 0.00 | 0.00 | 78 | 1035.7 |
| 20260508142736 | 18 | 6 | 0.0 | 0.0 | 0.00 | 0.00 | 0.00 | 82 | 1035.8 |
| 20260508142233 | 17 | 340 | 1.6 | 3.2 | 0.00 | 0.00 | 0.00 | 83 | 1035.2 |
| 20260508141730 | 17 | 189 | 0.0 | 3.2 | 0.00 | 0.00 | 0.00 | 84 | 1035.3 |
| 20260508141227 | 17 | 194 | 3.2 | 6.4 | 0.00 | 0.00 | 0.00 | 85 | 1035.8 |
| 20260508140724 | 17 | 200 | 1.6 | 4.8 | 0.00 | 0.00 | 0.00 | 87 | 1035.6 |
| 20260508140221 | 16 | 71 | 0.0 | 1.6 | 0.00 | 0.00 | 0.00 | 92 | 1035.5 |
| 20260508135717 | 16 | 119 | 1.6 | 3.2 | 0.00 | 0.00 | 0.00 | 94 | 1035.8 |